FENGYUN 1C DEB, 30762

Orbit data source: Space-Track

FENGYUN 1C DEB, 30762 is space debris in SSO originally from a launch on Mon, 10 May 1999 UTC launched from the Taiyaun Space Center, China (TSC). Fengyun 1C debris stems from the Chinese weather satellite Fengyun-1C, which was intentionally destroyed by a Chinese anti-satellite missile in 2007. This event dramatically increased the amount of space debris, with thousands of trackable fragments posing hazards to satellites and human spaceflight. The Fengyun 1C debris cloud has become a focal point in discussions about space sustainability and the need for international regulations to prevent the creation of new debris.

Loading next visibility...
Identifier
30762, 1999-025ATY
Orbit
SSO
Country
Flag of CNCN / PRC
Related business
Manufacturer
Unknown
Mission
Spacecraft
Bus & Motor
Unknown
Mass
Unknown
Launch date (UTC)
1999-05-10 (27 years ago)
Launch vehicle
Unknown
Launch site
Taiyaun Space Center, China (TSC)
Object type
Payload
Rocket body
Debris
Shape & HBR
Unknown shape, 0.1 m
Radar Cross Section
Medium (>0.1 m² and <1 m²)

Expand to show TLE details & history
Last TLE update: 2 days ago

TLE from 2 days ago
0 FENGYUN 1C DEB
1 30762U 99025ATY 26255.47634374  .00000346  00000-0  23148-3 0  9995
2 30762  98.8953 242.8680 0196240 257.5845 234.7449 13.98427841994631
Epoch: 2026-09-12T11:25Z
TLE epoch observation values (Epoch: 2026-09-12T11:25:56.099Z)
Latitude
48.77764°
Longitude
-89.86374°
Altitude
991.155 km
Speed
7.318 km/s
True Right ascension
04h 52m 25s
True Declination
48° 36' 45"
Sunlit
Object was in daylight at epoch
Visualization orbit readout
Latitude
Unknown
Longitude
Unknown
Altitude
Unknown
Speed
Unknown
Apparent Right ascension
Unknown
Apparent Declination
Unknown
Sunlit
N/A
Visualization observer readout
Local Sidereal Time
17:48:07
Azimuth
Unknown
Elevation
Unknown
Doppler factor
Unknown
Orbital elements
Apogee altitude
1,039.195 km
Perigee altitude
753.683 km
Semi-major axis
7,274.576 km
Eccentricity
0.01962
Inclination
98.8953°
RAAN
242.868°
Arg. of periapsis
257.5845°
True anomaly
232.93455°
Mean anomaly
234.7449°
Eccentric anomaly
233.83715°
Mean motion
3.4981 °/min
Orbital period
102.91 mins
BSTAR
0.00023148
Loading maneuver chart data...
Computing Atmospheric mass density...
Loading historical data...
Loading historical data...
Loading historical data...
Loading historical data...
Loading historical data...
Loading historical data...
Loading historical data...

Documentation

Showing up to 5 results
|